Regional Weather Roundup
Issued by NWS Goodland, KS

Home | Current Version | Previous Version | Graphics & Text | Print | Product List | Glossary On
Versions: 1 2 3 4 5 6 7 8 9 10 11 12 13 14 15 16 17 18 19 20 21 22 23 24 25 26 27 28 29 30 31 32 33 34 35 36 37 38 39 40 41 42 43 44 45 46 47 48 49 50
000
ASUS43 KGLD 010159
RWRGLD

GOODLAND FORECAST AREA HOURLY WEATHER ROUNDUP
NATIONAL WEATHER SERVICE GOODLAND KS
800 PM MDT TUE MAY 31 2016

...OFFICIAL OBSERVATIONS...

CITY           SKY/WX    TMP DP  RH WIND       PRES   REMARKS
GOODLAND KS    CLOUDY    61  51  70 E7        30.05S
HILL CITY KS   PTCLDY    66  55  67 NE7       30.02R
IMPERIAL NEB   PTCLDY    67  48  50 CALM      30.05R
MCCOOK NEB     CLEAR     64  51  62 S5        30.02S
AKRON CO       LGT RAIN  59  51  75 NE5       30.11R
BURLINGTON CO  CLOUDY    60  47  61 E10       30.07S
LIMON CO       CLOUDY    55  49  80 NE5       30.12S
$$

...UNOFFICIAL OBSERVATIONS...

CITY           SKY/WX    TMP DP  RH WIND       PRES   REMARKS
GOVE KS          N/A     67  32  27 MISG        N/A
LENORA KS        N/A     69  32  25 MISG        N/A
SHARON SPRINGS   N/A     65  55  69 E5          N/A
KIT CARSON CO    N/A     64  50  61 MISG        N/A
YUMA CO          N/A     63  49  59 E6          N/A
$$




USA.gov is the U.S. government's official web portal to all federal, state and local government web resources and services.